| time (UTC) | temp F | wind direction | speed knots | gust knots | rain 1hr in | rain 24hr in | rain mn in | humidity % | barometer mb |
| 20260506033804 | 48 | 0.0 | 0.9 | 0.00 | 0.04 | 0.04 | 89 | 1007.2 | |
| 20260506032746 | 48 | 0.0 | 0.9 | 0.00 | 0.04 | 0.04 | 88 | 1007.2 | |
| 20260506031746 | 48 | 0.0 | 0.9 | 0.00 | 0.04 | 0.04 | 88 | 1007.1 | |
| 20260506030746 | 48 | 0.0 | 1.7 | 0.00 | 0.04 | 0.04 | 87 | 1007.1 | |
| 20260506025746 | 48 | 0.0 | 0.9 | 0.00 | 0.04 | 0.04 | 87 | 1007.0 | |
| 20260506024746 | 48 | 0.0 | 1.7 | 0.00 | 0.04 | 0.04 | 86 | 1007.2 | |
| 20260506023746 | 48 | 0.0 | 0.0 | 0.00 | 0.04 | 0.04 | 85 | 1007.2 | |
| 20260506022746 | 48 | 0.0 | 1.7 | 0.00 | 0.04 | 0.04 | 84 | 1007.3 | |
| 20260506021746 | 48 | 0.0 | 1.7 | 0.00 | 0.04 | 0.04 | 83 | 1007.3 | |
| 20260506020806 | 48 | 0.0 | 1.7 | 0.00 | 0.04 | 0.04 | 83 | 1007.6 | |
| 20260506015746 | 48 | 0.0 | 0.9 | 0.00 | 0.04 | 0.04 | 82 | 1007.6 | |
| 20260506014746 | 48 | 135 | 0.9 | 3.5 | 0.00 | 0.04 | 0.04 | 80 | 1007.4 |
| 20260506013746 | 49 | 0.0 | 0.9 | 0.00 | 0.04 | 0.04 | 78 | 1007.2 | |
| 20260506012746 | 49 | 113 | 0.9 | 4.3 | 0.00 | 0.04 | 0.04 | 76 | 1007.0 |
| 20260506011747 | 50 | 135 | 0.9 | 4.3 | 0.00 | 0.04 | 0.04 | 74 | 1006.8 |
| 20260506010746 | 51 | 0.0 | 0.0 | 0.00 | 0.04 | 0.04 | 74 | 1006.8 | |
| 20260506005746 | 51 | 0.0 | 0.9 | 0.00 | 0.04 | 0.04 | 72 | 1006.6 | |
| 20260506004745 | 51 | 0.0 | 0.0 | 0.00 | 0.04 | 0.04 | 72 | 1006.7 | |
| 20260506003746 | 51 | 0.0 | 0.0 | 0.00 | 0.04 | 0.04 | 72 | 1006.5 | |
| 20260506002806 | 51 | 0.0 | 0.0 | 0.00 | 0.04 | 0.04 | 69 | 1006.6 | |
| 20260506001746 | 51 | 0.0 | 0.0 | 0.00 | 0.04 | 0.04 | 68 | 1006.3 | |
| 20260506000745 | 51 | 0.0 | 1.7 | 0.00 | 0.04 | 0.04 | 68 | 1006.2 | |
| 20260505235746 | 51 | 0.0 | 2.6 | 0.00 | 0.04 | 0.04 | 66 | 1006.2 | |
| 20260505234746 | 51 | 0.0 | 0.0 | 0.00 | 0.04 | 0.04 | 65 | 1005.9 | |
| 20260505233746 | 51 | 0 | 0.9 | 4.3 | 0.00 | 0.04 | 0.04 | 66 | 1005.9 |
| 20260505232746 | 51 | 0.0 | 1.7 | 0.00 | 0.04 | 0.04 | 68 | 1005.7 | |
| 20260505231746 | 51 | 0 | 0.9 | 2.6 | 0.00 | 0.04 | 0.04 | 66 | 1005.6 |
| 20260505230745 | 51 | 0.0 | 0.9 | 0.00 | 0.04 | 0.04 | 67 | ||
| 20260505225745 | 51 | 315 | 0.9 | 2.6 | 0.00 | 0.04 | 0.04 | 67 | |
| 20260505224806 | 51 | 0.0 | 1.7 | 0.00 | 0.04 | 0.04 | 68 | ||
| 20260505223746 | 51 | 293 | 0.9 | 4.3 | 0.00 | 0.04 | 0.04 | 68 | |
| 20260505222745 | 51 | 293 | 1.7 | 5.2 | 0.00 | 0.04 | 0.04 | 68 | |
| 20260505221746 | 51 | 270 | 1.7 | 6.1 | 0.00 | 0.04 | 0.04 | 68 | 1006.0 |
| 20260505220745 | 51 | 23 | 0.9 | 2.6 | 0.00 | 0.04 | 0.04 | 72 | 1005.7 |
| 20260505215806 | 51 | 315 | 3.5 | 7.8 | 0.00 | 0.04 | 0.04 | 72 | 1005.7 |
| 20260505214745 | 51 | 293 | 3.5 | 7.0 | 0.00 | 0.04 | 0.04 | 73 | 1005.7 |
| 20260505213745 | 51 | 293 | 4.3 | 8.7 | 0.00 | 0.04 | 0.04 | 75 | 1005.6 |
| 20260505212745 | 51 | 293 | 2.6 | 7.0 | 0.00 | 0.04 | 0.04 | 76 | 1005.6 |
| 20260505211746 | 51 | 315 | 2.6 | 6.1 | 0.00 | 0.04 | 0.04 | 76 | 1005.6 |
| 20260505210846 | 51 | 293 | 1.7 | 6.1 | 0.00 | 0.04 | 0.04 | 78 | 1005.4 |
| 20260505205745 | 51 | 293 | 1.7 | 2.6 | 0.01 | 0.04 | 0.04 | 79 | 1005.6 |
| 20260505204745 | 51 | 293 | 2.6 | 5.2 | 0.03 | 0.04 | 0.04 | 79 | 1005.3 |
| 20260505203745 | 51 | 293 | 2.6 | 5.2 | 0.04 | 0.04 | 0.04 | 78 | 1005.5 |
| 20260505202745 | 50 | 0 | 1.7 | 3.5 | 0.04 | 0.04 | 0.04 | 83 | 1005.2 |
| 20260505201745 | 50 | 0 | 0.9 | 5.2 | 0.04 | 0.04 | 0.04 | 84 | 1005.0 |
| 20260505200745 | 51 | 0.0 | 0.0 | 0.04 | 0.04 | 0.04 | 83 | 1005.1 | |
| 20260505195806 | 52 | 0 | 0.9 | 3.5 | 0.03 | 0.03 | 0.03 | 77 | 1005.2 |
| 20260505194745 | 54 | 338 | 0.9 | 4.3 | 0.01 | 0.01 | 0.01 | 71 | 1004.9 |
| 20260505193745 | 56 | 315 | 3.5 | 11.3 | 0.00 | 0.00 | 0.00 | 60 | 1004.8 |
| 20260505192745 | 57 | 293 | 5.2 | 11.3 | 0.00 | 0.00 | 0.00 | 56 | 1004.5 |
| 20260505191805 | 58 | 293 | 6.1 | 12.2 | 0.00 | 0.00 | 0.00 | 54 | 1004.0 |
| 20260505190745 | 59 | 315 | 5.2 | 13.9 | 0.00 | 0.00 | 0.00 | 52 | 1004.2 |
| 20260505185745 | 59 | 315 | 4.3 | 9.6 | 0.00 | 0.00 | 0.00 | 52 | 1004.0 |
| 20260505184745 | 59 | 293 | 4.3 | 8.7 | 0.00 | 0.00 | 0.00 | 52 | 1003.7 |
| 20260505183745 | 59 | 293 | 5.2 | 11.3 | 0.00 | 0.00 | 0.00 | 52 | 1003.8 |
| 20260505182745 | 60 | 293 | 4.3 | 10.4 | 0.00 | 0.00 | 0.00 | 52 | 1003.5 |
| 20260505181745 | 60 | 293 | 4.3 | 12.2 | 0.00 | 0.00 | 0.00 | 53 | 1003.3 |
| 20260505180745 | 60 | 293 | 4.3 | 15.6 | 0.00 | 0.00 | 0.00 | 53 | 1003.1 |
| 20260505175745 | 61 | 270 | 3.5 | 13.0 | 0.00 | 0.00 | 0.00 | 54 | 1003.0 |
| 20260505174745 | 61 | 293 | 5.2 | 12.2 | 0.00 | 0.00 | 0.00 | 54 | 1002.8 |
| 20260505173745 | 62 | 293 | 4.3 | 8.7 | 0.00 | 0.00 | 0.00 | 56 | 1002.6 |
| 20260505172745 | 62 | 293 | 5.2 | 10.4 | 0.00 | 0.00 | 0.00 | 58 | 1002.5 |
| 20260505171745 | 62 | 293 | 5.2 | 11.3 | 0.00 | 0.00 | 0.00 | 57 | 1002.3 |
| 20260505170745 | 62 | 293 | 5.2 | 12.2 | 0.00 | 0.00 | 0.00 | 59 | 1002.2 |
| 20260505165745 | 62 | 315 | 1.7 | 5.2 | 0.00 | 0.00 | 0.00 | 65 | 1002.0 |
| 20260505164745 | 61 | 315 | 1.7 | 4.3 | 0.00 | 0.00 | 0.00 | 67 | 1001.9 |
| 20260505163746 | 60 | 293 | 1.7 | 6.1 | 0.00 | 0.00 | 0.00 | 68 | 1002.1 |
| 20260505162744 | 60 | 293 | 2.6 | 5.2 | 0.00 | 0.00 | 0.00 | 68 | 1002.3 |
| 20260505161805 | 59 | 0 | 0.9 | 3.5 | 0.00 | 0.00 | 0.00 | 69 | 1002.3 |
| 20260505160805 | 59 | 293 | 1.7 | 5.2 | 0.00 | 0.00 | 0.00 | 69 | 1002.3 |
| 20260505152745 | 58 | 293 | 3.5 | 8.7 | 0.00 | 0.00 | 0.00 | 71 | 1002.0 |
| 20260505151744 | 59 | 293 | 3.5 | 7.0 | 0.00 | 0.00 | 0.00 | 71 | 1001.7 |
| 20260505150744 | 59 | 293 | 3.5 | 7.0 | 0.00 | 0.00 | 0.00 | 72 | 1001.2 |
| 20260505124744 | 62 | 270 | 4.3 | 11.3 | 0.00 | 0.00 | 0.00 | 74 | 998.9 |
| 20260505123745 | 62 | 293 | 3.5 | 9.6 | 0.00 | 0.00 | 0.00 | 74 | 998.7 |
| 20260505122805 | 61 | 270 | 2.6 | 6.1 | 0.00 | 0.00 | 0.00 | 76 | 998.3 |
| 20260505121745 | 61 | 270 | 1.7 | 5.2 | 0.00 | 0.00 | 0.00 | 77 | 998.6 |
| 20260505120745 | 60 | 270 | 0.9 | 3.5 | 0.00 | 0.00 | 0.00 | 77 | 998.6 |
| 20260505115744 | 60 | 270 | 1.7 | 8.7 | 0.00 | 0.00 | 0.00 | 79 | 998.7 |
| 20260505114805 | 59 | 270 | 1.7 | 5.2 | 0.00 | 0.00 | 0.00 | 79 | 998.6 |
| 20260505113744 | 59 | 225 | 2.6 | 7.0 | 0.00 | 0.00 | 0.00 | 79 | 998.6 |
| 20260505112744 | 59 | 248 | 0.9 | 2.6 | 0.00 | 0.00 | 0.00 | 79 | 998.5 |
| 20260505111744 | 59 | 248 | 0.9 | 3.5 | 0.00 | 0.00 | 0.00 | 80 | 998.3 |
| 20260505111016 | 59 | 270 | 0.9 | 5.2 | 0.00 | 0.00 | 0.00 | 80 | 998.5 |
| 20260505110501 | 0 | 0.0 | 0.0 | 0.00 | 0.00 | 0.00 | |||
| 20260505102017 | 0 | 0.0 | 0.0 | 0.00 | 0.00 | 0.00 | |||
| 20260505101554 | 59 | 0.0 | 0.0 | 0.00 | 0.00 | 0.00 | 78 | 997.5 | |
| 20260505101034 | 59 | 270 | 3.5 | 9.6 | 0.00 | 0.00 | 0.00 | 78 | 997.6 |
| 20260505100744 | 59 | 248 | 1.7 | 7.0 | 0.00 | 0.00 | 0.00 | 78 | 997.6 |
| 20260505095744 | 59 | 158 | 0.9 | 5.2 | 0.00 | 0.00 | 0.00 | 78 | 997.4 |
| 20260505094744 | 59 | 248 | 0.9 | 7.0 | 0.00 | 0.00 | 0.00 | 77 | 997.2 |
| 20260505093804 | 60 | 315 | 1.7 | 6.1 | 0.00 | 0.00 | 0.00 | 77 | 997.5 |
| 20260505092744 | 60 | 225 | 0.9 | 5.2 | 0.00 | 0.00 | 0.00 | 77 | 997.2 |
| 20260505091744 | 60 | 270 | 1.7 | 4.3 | 0.00 | 0.00 | 0.00 | 77 | 997.3 |
| 20260505090746 | 60 | 270 | 0.9 | 4.3 | 0.00 | 0.00 | 0.00 | 77 | 997.2 |
| 20260505085744 | 60 | 248 | 0.9 | 1.7 | 0.00 | 0.00 | 0.00 | 76 | 997.3 |
| 20260505084806 | 61 | 248 | 1.7 | 4.3 | 0.00 | 0.00 | 0.00 | 76 | 997.1 |
| 20260505083744 | 61 | 135 | 1.7 | 7.0 | 0.00 | 0.00 | 0.00 | 75 | 997.3 |
| 20260505082746 | 61 | 270 | 1.7 | 6.1 | 0.00 | 0.00 | 0.00 | 75 | 997.4 |
| 20260505081746 | 61 | 248 | 1.7 | 9.6 | 0.00 | 0.00 | 0.00 | 75 | 997.5 |
| 20260505080746 | 61 | 225 | 1.7 | 6.1 | 0.00 | 0.00 | 0.00 | 75 | 997.7 |
| 20260505075746 | 61 | 248 | 1.7 | 7.0 | 0.00 | 0.00 | 0.00 | 74 | 997.6 |
| 20260505074806 | 61 | 293 | 1.7 | 5.2 | 0.00 | 0.00 | 0.00 | 74 | 997.7 |
| 20260505073746 | 61 | 225 | 0.9 | 3.5 | 0.00 | 0.00 | 0.00 | 74 | 997.7 |
| 20260505072746 | 61 | 270 | 0.9 | 3.5 | 0.00 | 0.00 | 0.00 | 73 | 997.7 |
| 20260505071749 | 61 | 270 | 0.9 | 7.0 | 0.00 | 0.01 | 0.00 | 73 | 997.6 |
| 20260505070804 | 61 | 270 | 1.7 | 5.2 | 0.00 | 0.01 | 0.00 | 73 | 997.5 |
| 20260505065746 | 61 | 225 | 0.9 | 4.3 | 0.00 | 0.01 | 0.00 | 73 | 997.6 |
| 20260505064746 | 60 | 135 | 1.7 | 5.2 | 0.00 | 0.01 | 0.00 | 73 | 997.8 |
| 20260505063746 | 60 | 270 | 1.7 | 5.2 | 0.00 | 0.01 | 0.00 | 73 | 997.9 |
| 20260505062746 | 60 | 225 | 1.7 | 4.3 | 0.00 | 0.01 | 0.00 | 73 | 997.9 |
| 20260505061753 | 59 | 248 | 1.7 | 7.8 | 0.00 | 0.01 | 0.00 | 74 | 998.0 |
| 20260505060746 | 59 | 248 | 0.9 | 3.5 | 0.00 | 0.01 | 0.00 | 75 | 998.2 |
| 20260505055806 | 59 | 225 | 0.9 | 3.5 | 0.00 | 0.01 | 0.00 | 75 | 998.3 |
| 20260505054746 | 59 | 248 | 0.9 | 5.2 | 0.00 | 0.01 | 0.00 | 75 | 998.2 |
| 20260505053746 | 60 | 248 | 1.7 | 4.3 | 0.00 | 0.01 | 0.00 | 75 | 998.2 |
| 20260505052746 | 60 | 225 | 0.9 | 3.5 | 0.00 | 0.01 | 0.00 | 75 | 998.1 |
| 20260505051746 | 60 | 113 | 0.9 | 3.5 | 0.00 | 0.01 | 0.00 | 75 | 998.2 |
| 20260505050746 | 60 | 135 | 0.9 | 1.7 | 0.00 | 0.01 | 0.00 | 75 | 998.3 |
| 20260505041746 | 61 | 248 | 1.7 | 6.1 | 0.00 | 0.01 | 0.00 | 71 | 998.4 |
| 20260505040746 | 61 | 270 | 2.6 | 10.4 | 0.00 | 0.01 | 0.00 | 70 | 998.3 |
| 20260505035746 | 61 | 248 | 2.6 | 9.6 | 0.00 | 0.01 | 0.01 | 69 | 998.4 |
| 20260505034746 | 61 | 135 | 2.6 | 6.1 | 0.00 | 0.01 | 0.01 | 67 | 998.5 |